| time (UTC) | temp F | wind direction | speed MPH | gust MPH | rain 1hr in | rain 24hr in | rain mn in | humidity % | barometer mb |
| 20260503031549 | 50 | 321 | 4.0 | 0.0 | 0.00 | 0.00 | 0.00 | 61 | 1012.8 |
| 20260503030044 | 50 | 304 | 5.0 | 0.0 | 0.00 | 0.00 | 0.00 | 60 | 1012.8 |
| 20260503024547 | 50 | 325 | 4.0 | 0.0 | 0.00 | 0.00 | 0.00 | 59 | 1012.8 |
| 20260503023037 | 50 | 338 | 3.0 | 0.0 | 0.00 | 0.00 | 0.00 | 59 | 1013.0 |
| 20260503021534 | 51 | 284 | 5.0 | 0.0 | 0.00 | 0.00 | 0.00 | 58 | 1012.8 |
| 20260503020028 | 51 | 324 | 2.0 | 0.0 | 0.00 | 0.00 | 0.00 | 59 | 1012.9 |
| 20260503014523 | 52 | 303 | 1.0 | 0.0 | 0.00 | 0.00 | 0.00 | 59 | 1012.7 |
| 20260503013030 | 52 | 323 | 0.0 | 0.0 | 0.00 | 0.00 | 0.00 | 57 | 1012.6 |
| 20260503011514 | 53 | 324 | 0.0 | 0.0 | 0.00 | 0.00 | 0.00 | 55 | 1012.5 |
| 20260503010010 | 54 | 83 | 0.0 | 0.0 | 0.00 | 0.00 | 0.00 | 54 | 1012.2 |
| 20260503004506 | 54 | 349 | 2.0 | 0.0 | 0.00 | 0.00 | 0.00 | 53 | 1012.1 |
| 20260503003001 | 54 | 277 | 2.0 | 0.0 | 0.00 | 0.00 | 0.00 | 52 | 1011.9 |
| 20260503001557 | 54 | 360 | 3.0 | 0.0 | 0.00 | 0.00 | 0.00 | 52 | 1011.9 |
| 20260503000053 | 55 | 355 | 1.0 | 0.0 | 0.00 | 0.00 | 0.00 | 52 | 1011.8 |
| 20260502234609 | 55 | 317 | 3.0 | 0.0 | 0.00 | 0.00 | 0.00 | 50 | 1011.7 |
| 20260502233043 | 55 | 260 | 3.0 | 0.0 | 0.00 | 0.00 | 0.00 | 50 | 1011.5 |
| 20260502231539 | 56 | 321 | 4.0 | 0.0 | 0.00 | 0.00 | 0.00 | 49 | 1011.5 |
| 20260502230034 | 56 | 325 | 5.0 | 0.0 | 0.00 | 0.00 | 0.00 | 48 | 1011.4 |
| 20260502224531 | 56 | 286 | 6.0 | 0.0 | 0.00 | 0.00 | 0.00 | 47 | 1011.4 |
| 20260502223026 | 57 | 340 | 5.0 | 0.0 | 0.00 | 0.00 | 0.00 | 47 | 1011.1 |
| 20260502221522 | 57 | 297 | 3.0 | 0.0 | 0.00 | 0.00 | 0.00 | 46 | 1011.1 |
| 20260502220021 | 57 | 286 | 4.0 | 0.0 | 0.00 | 0.00 | 0.00 | 45 | 1011.2 |
| 20260502214513 | 57 | 250 | 5.0 | 0.0 | 0.00 | 0.00 | 0.00 | 45 | 1011.1 |
| 20260502213019 | 58 | 275 | 6.0 | 0.0 | 0.00 | 0.00 | 0.00 | 44 | 1011.1 |
| 20260502211505 | 59 | 51 | 6.0 | 0.0 | 0.00 | 0.00 | 0.00 | 44 | 1011.0 |
| 20260502210101 | 58 | 338 | 3.0 | 0.0 | 0.00 | 0.00 | 0.00 | 44 | 1010.8 |
| 20260502204603 | 59 | 331 | 5.0 | 0.0 | 0.00 | 0.00 | 0.00 | 43 | 1010.7 |
| 20260502203116 | 58 | 38 | 5.0 | 0.0 | 0.00 | 0.00 | 0.00 | 44 | 1010.8 |
| 20260502201556 | 59 | 305 | 4.0 | 0.0 | 0.00 | 0.00 | 0.00 | 45 | 1010.7 |
| 20260502200043 | 58 | 306 | 7.0 | 0.0 | 0.00 | 0.00 | 0.00 | 43 | 1010.8 |
| 20260502194539 | 61 | 273 | 6.0 | 0.0 | 0.00 | 0.00 | 0.00 | 43 | 1010.9 |
| 20260502193041 | 59 | 5 | 6.0 | 0.0 | 0.00 | 0.00 | 0.00 | 45 | 1011.3 |
| 20260502191535 | 58 | 317 | 4.0 | 0.0 | 0.00 | 0.00 | 0.00 | 45 | 1011.7 |
| 20260502190026 | 58 | 360 | 5.0 | 0.0 | 0.00 | 0.00 | 0.00 | 45 | 1011.8 |
| 20260502184521 | 61 | 360 | 4.0 | 0.0 | 0.00 | 0.00 | 0.00 | 43 | 1011.9 |
| 20260502183020 | 58 | 242 | 3.0 | 0.0 | 0.00 | 0.00 | 0.00 | 46 | 1012.2 |
| 20260502181512 | 58 | 253 | 5.0 | 0.0 | 0.00 | 0.00 | 0.00 | 46 | 1012.5 |
| 20260502163041 | 56 | 36 | 3.0 | 0.0 | 0.00 | 0.00 | 0.00 | 51 | 1013.1 |
| 20260502161537 | 56 | 292 | 3.0 | 0.0 | 0.00 | 0.00 | 0.00 | 53 | 1013.3 |
| 20260502151521 | 54 | 301 | 4.0 | 0.0 | 0.00 | 0.00 | 0.00 | 57 | 1013.6 |
| 20260502123033 | 49 | 336 | 5.0 | 0.0 | 0.00 | 0.00 | 0.00 | 58 | 1013.5 |
| 20260502121532 | 49 | 355 | 6.0 | 0.0 | 0.00 | 0.00 | 0.00 | 57 | 1013.6 |
| 20260502114520 | 49 | 340 | 5.0 | 0.0 | 0.00 | 0.00 | 0.00 | 57 | 1013.3 |
| 20260502113016 | 49 | 355 | 3.0 | 0.0 | 0.00 | 0.00 | 0.00 | 58 | 1013.4 |
| 20260502111511 | 49 | 280 | 3.0 | 0.0 | 0.00 | 0.00 | 0.00 | 59 | 1013.3 |
| 20260502110009 | 49 | 314 | 4.0 | 0.0 | 0.00 | 0.00 | 0.00 | 60 | 1013.1 |
| 20260502104503 | 49 | 360 | 3.0 | 0.0 | 0.00 | 0.00 | 0.00 | 61 | 1013.0 |
| 20260502103059 | 49 | 332 | 4.0 | 0.0 | 0.00 | 0.00 | 0.00 | 62 | 1013.0 |
| 20260502101608 | 50 | 325 | 5.0 | 0.0 | 0.00 | 0.00 | 0.00 | 62 | 1012.8 |
| 20260502071502 | 53 | 347 | 4.0 | 0.0 | 0.00 | 0.00 | 0.00 | 100 | 1011.6 |
| 20260502070116 | 53 | 305 | 2.0 | 0.0 | 0.00 | 0.00 | 0.00 | 100 | 1011.5 |
| 20260502064555 | 53 | 263 | 3.0 | 0.0 | 0.00 | 0.00 | 0.00 | 100 | 1011.5 |
| 20260502063049 | 53 | 284 | 4.0 | 0.0 | 0.00 | 0.00 | 0.00 | 100 | 1011.9 |
| 20260502061545 | 53 | 348 | 3.0 | 0.0 | 0.00 | 0.00 | 0.00 | 100 | 1012.0 |
| 20260502060044 | 53 | 296 | 3.0 | 0.0 | 0.00 | 0.00 | 0.00 | 100 | 1012.3 |
| 20260502054547 | 53 | 305 | 0.0 | 0.0 | 0.00 | 0.00 | 0.00 | 100 | 1012.1 |
| 20260502053031 | 53 | 290 | 0.0 | 0.0 | 0.00 | 0.00 | 0.00 | 100 | 1012.0 |
| 20260502051527 | 53 | 254 | 0.0 | 0.0 | 0.00 | 0.00 | 0.00 | 100 | 1012.3 |
| 20260502050023 | 53 | 249 | 0.0 | 0.0 | 0.00 | 0.00 | 0.00 | 100 | 1012.2 |
| 20260502044518 | 53 | 249 | 0.0 | 0.0 | 0.00 | 0.00 | 0.00 | 100 | 1012.4 |
| 20260502043014 | 53 | 249 | 0.0 | 0.0 | 0.00 | 0.00 | 0.00 | 100 | 1012.2 |
| 20260502041521 | 53 | 249 | 0.0 | 0.0 | 0.00 | 0.00 | 0.00 | 100 | 1011.9 |
| 20260502040005 | 54 | 231 | 0.0 | 0.0 | 0.00 | 0.00 | 0.00 | 100 | 1011.8 |
| 20260502034501 | 55 | 231 | 0.0 | 0.0 | 0.00 | 0.00 | 0.00 | 33 | 1011.7 |
| 20260502033057 | 56 | 231 | 2.0 | 0.0 | 0.00 | 0.00 | 0.00 | 56 | 1011.8 |